THOR ABLESTAR DEB, 253

Orbit data source: Space-Track

THOR ABLESTAR DEB, 253 is space debris in LEO originally from a launch on Thu, 29 Jun 1961 UTC launched from the Air Force Eastern Test Range (AFETR). Debris objects in space refer to the collection of defunct objects orbiting the Earth. Examples of debris include non-operational satellites, rocket bodies, and fragments generated from explosions, collisions, or faulty payload assembly.

Loading next visibility...
Identifier
253, 1961-015CE
Orbit
LEO
Country
Flag of USUS
Related business
Manufacturer
Unknown
Mission
Spacecraft
Bus & Motor
Unknown
Mass
Unknown
Launch date (UTC)
1961-06-29 (64 years ago)
Launch vehicle
Unknown
Launch site
Air Force Eastern Test Range (AFETR)
Object type
Payload
Rocket body
Debris
Shape & HBR
Unknown shape, 0.1 m
Radar Cross Section
Small (<0.1 m²)

Expand to show TLE details & history
Last TLE update: 10 hours ago

TLE from 10 hours ago
0 THOR ABLESTAR DEB
1 00253U 61015CE  25299.18505770  .00061756  00000-0  28778-2 0  9992
2 00253  66.9075 320.2622 0017124 245.2811 114.6552 15.19408684344236
Epoch: 2025-10-26T04:26Z
TLE epoch observation values (Epoch: 2025-10-26T04:26:28.985Z)
Latitude
-0.00002°
Longitude
-141.16347°
Altitude
514.773 km
Speed
7.604 km/s
True Right ascension
21h 21m 02s
True Declination
0° 00' 00"
Sunlit
Object was in daylight at epoch
Visualization orbit readout
Latitude
Unknown
Longitude
Unknown
Altitude
Unknown
Speed
Unknown
Apparent Right ascension
Unknown
Apparent Declination
Unknown
Sunlit
N/A
Visualization observer readout
Local Sidereal Time
09:23:31
Azimuth
Unknown
Elevation
Unknown
Doppler factor
Unknown
Orbital elements
Apogee altitude
517.697 km
Perigee altitude
494.121 km
Semi-major axis
6,884.046 km
Eccentricity
0.00171
Inclination
66.9075°
RAAN
320.2622°
Arg. of periapsis
245.2811°
True anomaly
114.83338°
Mean anomaly
114.6552°
Eccentric anomaly
114.7443°
Mean motion
3.79995 °/min
Orbital period
94.74 mins
BSTAR
0.0028778
Loading maneuver chart data...
Computing Atmospheric mass density...

Documentation

Showing up to 5 results
|